Voltar ao catálogo

COSMOS 970 DEB

AtivoLEO
NORAD 64999·DEBRIS·🇷🇺 Russia

Lançado Dec 21, 1977 de Baikonur Cosmodrome

Loading…

Próximas Passagens (próximas 24 horas)

TLE

EnvelhecendoSource: Space-Track

Época: Sep 10, 2026, 03:16 UTC

1 64999U 77121DL  26253.13621737  .00000003  00000-0  14556-3 0  9990
2 64999  65.7334  70.0509 0014460 150.3904 317.4188 13.37486814625016

Acompanhe COSMOS 970 DEB em tempo real com AllMySat

Download on the App Store